GW5071 Weather Reports


time (UTC)temp
F
wind
direction
speed
knots
gust
knots
rain 1hr
in
rain 24hr
in
rain mn
in
humidity
%
barometer
mb
20260504215223 55 188 11.3 14.8 0.00 0.00 0.00 83 1012.9
20260504214718 55 193 9.6 14.8 0.00 0.00 0.00 82 1013.0
20260504214215 55 183 5.2 16.5 0.00 0.00 0.00 82 1013.1
20260504213712 55 196 9.6 13.9 0.00 0.00 0.00 82 1013.1
20260504213208 55 201 11.3 13.9 0.00 0.00 0.00 82 1013.1
20260504212705 55 194 9.6 14.8 0.00 0.00 0.00 82 1013.0
20260504212202 55 188 9.6 15.6 0.00 0.00 0.00 82 1013.0
20260504211659 55 194 14.8 17.4 0.00 0.00 0.00 81 1012.9
20260504211155 55 186 10.4 17.4 0.00 0.00 0.00 81 1013.0
20260504210653 55 172 7.8 17.4 0.00 0.00 0.00 80 1012.9
20260504210149 56 184 9.6 14.8 0.00 0.00 0.00 80 1012.8
20260504205647 56 215 8.7 17.4 0.00 0.00 0.00 79 1013.0
20260504205144 56 195 7.8 14.8 0.00 0.00 0.00 79 1013.1
20260504204642 56 178 4.3 16.5 0.00 0.00 0.00 79 1012.9
20260504204141 56 194 8.7 15.6 0.00 0.00 0.00 79 1012.9
20260504203639 56 196 10.4 14.8 0.00 0.00 0.00 79 1013.1
20260504203137 56 196 6.1 13.9 0.00 0.00 0.00 79 1013.0
20260504202637 56 193 9.6 16.5 0.00 0.00 0.00 78 1013.0
20260504202134 56 191 11.3 15.6 0.00 0.00 0.00 78 1013.3
20260504201631 56 199 8.7 15.6 0.00 0.00 0.00 78 1013.2
20260504201129 56 184 8.7 18.2 0.00 0.00 0.00 79 1013.2
20260504200625 56 190 10.4 16.5 0.00 0.00 0.00 79 1013.1
20260504200122 55 195 13.0 18.2 0.00 0.00 0.00 78 1013.3
20260504195618 56 181 11.3 16.5 0.00 0.00 0.00 78 1013.3
20260504195114 56 191 11.3 14.8 0.00 0.00 0.00 78 1013.5
20260504194611 56 178 11.3 16.5 0.00 0.00 0.00 77 1013.4
20260504194107 57 190 9.6 18.2 0.00 0.00 0.00 77 1013.4
20260504193603 57 189 8.7 14.8 0.00 0.00 0.00 77 1013.5
20260504193102 57 216 7.8 15.6 0.00 0.00 0.00 76 1013.6
20260504192600 57 207 17.4 18.2 0.00 0.00 0.00 75 1013.4
20260504192058 57 216 14.8 20.0 0.00 0.00 0.00 76 1013.7
20260504191556 57 215 7.8 17.4 0.00 0.00 0.00 76 1013.5
20260504191051 57 203 8.7 14.8 0.00 0.00 0.00 76 1013.6
20260504190548 57 206 8.7 13.0 0.00 0.00 0.00 76 1013.7
20260504190044 57 192 7.8 18.2 0.00 0.00 0.00 76 1013.8
20260504185541 58 210 12.2 15.6 0.00 0.00 0.00 73 1013.7
20260504185038 58 209 8.7 16.5 0.00 0.00 0.00 74 1013.7
20260504184533 58 208 12.2 18.2 0.00 0.00 0.00 73 1013.8
20260504184029 58 217 11.3 15.6 0.00 0.00 0.00 73 1013.9
20260504183526 57 209 9.6 18.2 0.00 0.00 0.00 74 1014.0
20260504183025 57 217 13.0 19.1 0.00 0.00 0.00 76 1014.0
20260504182521 57 211 13.9 17.4 0.00 0.00 0.00 75 1013.9
20260504182018 57 205 8.7 20.9 0.00 0.00 0.00 77 1014.0
20260504181515 56 218 19.1 20.0 0.00 0.00 0.00 77 1014.0
20260504181014 56 206 10.4 17.4 0.00 0.00 0.00 77 1014.4
20260504180513 56 214 10.4 20.0 0.00 0.00 0.00 77 1014.1
20260504180011 56 212 14.8 18.2 0.00 0.00 0.00 78 1014.4
20260504175508 56 217 8.7 20.9 0.00 0.00 0.00 78 1014.3
20260504175005 57 220 11.3 16.5 0.00 0.00 0.00 78 1014.4
20260504174503 56 217 13.0 20.9 0.00 0.00 0.00 78 1014.3
20260504173959 56 213 11.3 18.2 0.00 0.00 0.00 77 1014.4
20260504173456 56 205 9.6 18.2 0.00 0.00 0.00 78 1014.6
20260504172953 56 212 17.4 19.1 0.00 0.00 0.00 78 1014.6
20260504172448 56 202 13.9 18.2 0.00 0.00 0.00 78 1014.5
20260504171945 56 203 11.3 18.2 0.00 0.00 0.00 79 1014.6
20260504171443 55 207 9.6 17.4 0.00 0.00 0.00 80 1014.6
20260504170939 56 211 14.8 17.4 0.00 0.00 0.00 79 1014.7
20260504170435 56 220 11.3 17.4 0.00 0.00 0.00 78 1015.0
20260504160355 55 202 10.4 15.6 0.00 0.00 0.00 78 1015.4
20260504150820 55 225 7.8 14.8 0.00 0.00 0.00 77 1015.9
20260504150316 56 208 10.4 12.2 0.00 0.00 0.00 75 1016.0
20260504141246 55 231 12.2 13.9 0.00 0.00 0.00 75 1016.3
20260504140743 55 223 8.7 17.4 0.00 0.00 0.00 75 1016.5
20260504140238 55 228 10.4 14.8 0.00 0.00 0.00 75 1016.3
20260504130707 53 237 9.6 17.4 0.00 0.00 0.00 76 1016.8
20260504130203 54 229 10.4 15.6 0.00 0.00 0.00 74 1016.7
20260504120127 53 230 10.4 17.4 0.00 0.00 0.00 75 1017.0
20260504110554 51 243 13.0 18.2 0.00 0.00 0.00 73 1016.8
20260504100516 51 229 14.8 17.4 0.00 0.00 0.00 77 1016.5
20260504081909 50 226 9.6 16.5 0.00 0.00 0.00 77 1015.9
20260504081406 50 239 9.6 12.2 0.00 0.00 0.00 77 1015.8
20260504080902 50 235 7.8 13.0 0.00 0.00 0.00 76 1015.9
20260504080359 50 247 7.8 13.0 0.00 0.00 0.00 76 1015.7
20260504070326 51 224 12.2 13.9 0.00 0.00 0.00 74 1015.3
20260504060247 51 244 7.0 15.6 0.00 0.00 0.00 71 1015.1
20260504050715 51 230 11.3 13.9 0.00 0.00 0.00 72 1015.0
20260504050213 52 222 10.4 15.6 0.00 0.00 0.00 70 1014.8
20260504045710 52 240 7.0 14.8 0.00 0.00 0.00 69 1014.9
20260504045210 51 235 10.4 14.8 0.00 0.00 0.00 72 1014.9
20260504044708 51 236 12.2 15.6 0.00 0.00 0.00 72 1014.9
20260504044205 51 231 9.6 15.6 0.00 0.00 0.00 73 1014.9
20260504043702 51 240 8.7 13.0 0.00 0.00 0.00 75 1015.0
20260504043158 51 218 11.3 15.6 0.00 0.00 0.00 76 1014.8
20260504042655 51 229 7.0 11.3 0.00 0.00 0.00 76 1015.2
20260504042152 51 221 8.7 12.2 0.00 0.00 0.00 75 1015.1
20260504041648 51 229 10.4 11.3 0.00 0.00 0.00 75 1014.9
20260504041144 51 218 7.0 11.3 0.00 0.00 0.00 74 1015.0
20260504040641 51 233 7.8 9.6 0.00 0.00 0.00 75 1014.8
20260504040138 51 239 5.2 10.4 0.00 0.00 0.00 74 1014.9
20260504035634 51 227 7.0 9.6 0.00 0.00 0.00 74 1014.7
20260504035131 51 228 7.0 9.6 0.00 0.00 0.00 72 1015.0
20260504034629 52 228 7.8 11.3 0.00 0.00 0.00 69 1014.9
20260504034126 52 229 9.6 11.3 0.00 0.00 0.00 65 1014.7
20260504033624 53 239 7.8 9.6 0.00 0.00 0.00 64 1014.6
20260504033121 52 227 9.6 13.0 0.00 0.00 0.00 68 1014.5
20260504032618 51 225 10.4 13.9 0.00 0.00 0.00 73 1014.6
20260504032115 51 231 7.8 13.0 0.00 0.00 0.00 73 1014.7
20260504031612 52 231 8.7 13.0 0.00 0.00 0.00 73 1014.7
20260504031108 51 234 9.6 11.3 0.00 0.00 0.00 73 1014.7
20260504030605 52 223 7.8 10.4 0.00 0.00 0.00 72 1014.9
20260504030101 52 239 7.8 13.9 0.00 0.00 0.00 70 1014.6
20260504025558 51 235 8.7 11.3 0.00 0.00 0.00 71 1014.9
20260504025055 51 246 8.7 8.7 0.00 0.00 0.00 75 1014.8
20260504024552 51 231 6.1 9.6 0.00 0.00 0.00 77 1014.9
20260504024049 51 217 6.1 11.3 0.00 0.00 0.00 77 1014.7
20260504023546 51 225 7.0 8.7 0.00 0.00 0.00 78 1014.7
20260504023042 51 207 6.1 7.0 0.00 0.00 0.00 77 1014.8
20260504022538 51 209 5.2 7.8 0.00 0.00 0.00 75 1014.7
20260504022034 53 230 7.8 10.4 0.00 0.00 0.00 62 1014.6
20260504021532 53 239 6.1 13.0 0.00 0.00 0.00 59 1014.6
20260504021028 53 232 9.6 9.6 0.00 0.00 0.00 61 1014.8
20260504020525 52 243 4.3 7.0 0.00 0.00 0.00 67 1014.7
20260504020022 52 236 6.1 10.4 0.00 0.00 0.00 68 1014.6
20260504015518 52 238 5.2 10.4 0.00 0.00 0.00 69 1014.6
20260504015014 52 229 10.4 11.3 0.00 0.00 0.00 70 1014.4
20260504014510 52 220 6.1 9.6 0.00 0.00 0.00 67 1014.6
20260504014008 53 232 9.6 13.0 0.00 0.00 0.00 61 1014.5
20260504013506 53 228 4.3 9.6 0.00 0.00 0.00 59 1014.3
20260504013001 53 236 9.6 10.4 0.00 0.00 0.00 58 1014.3
20260504012500 53 232 7.0 9.6 0.00 0.00 0.00 59 1014.5
20260504011957 53 225 9.6 11.3 0.00 0.00 0.00 62 1014.2
20260504011453 54 212 6.1 10.4 0.00 0.00 0.00 54 1014.4
20260504010949 54 236 4.3 6.1 0.00 0.00 0.00 43 1014.0
20260504010446 55 236 4.3 6.1 0.00 0.00 0.00 43 1014.0
20260504005942 55 231 6.1 7.8 0.00 0.00 0.00 46 1014.0
20260504005439 55 240 2.6 5.2 0.00 0.00 0.00 49 1013.8
20260504004936 56 257 2.6 7.0 0.00 0.00 0.00 52 1013.7
20260504004434 57 264 5.2 7.0 0.00 0.00 0.00 50 1013.8
20260504003930 56 261 3.5 7.8 0.00 0.00 0.00 51 1013.9
20260504003427 56 271 6.1 7.8 0.00 0.00 0.00 50 1013.8
20260504002923 56 266 6.1 7.8 0.00 0.00 0.00 49 1013.6
20260504002420 56 271 7.0 7.8 0.00 0.00 0.00 51 1013.2
20260504001918 57 272 5.2 7.8 0.00 0.00 0.00 51 1013.4
20260504001416 57 267 7.0 7.8 0.00 0.00 0.00 50 1013.4
20260504000912 57 276 8.7 11.3 0.00 0.00 0.00 47 1013.2
20260504000409 57 267 6.1 10.4 0.00 0.00 0.00 46 1013.4
20260503235906 57 273 8.7 13.0 0.00 0.00 0.00 46 1013.3
20260503235404 57 269 7.0 11.3 0.00 0.00 0.00 46 1013.1
20260503234901 57 274 10.4 15.6 0.00 0.00 0.00 45 1013.1
20260503234359 58 290 13.9 15.6 0.00 0.00 0.00 41 1013.1
20260503233856 58 281 10.4 15.6 0.00 0.00 0.00 47 1013.0
20260503233353 58 284 15.6 18.2 0.00 0.00 0.00 42 1012.8
20260503232849 58 280 11.3 18.2 0.00 0.00 0.00 43 1012.7
20260503232347 58 300 15.6 20.0 0.00 0.00 0.00 43 1012.8
20260503231845 58 291 13.9 20.0 0.00 0.00 0.00 42 1012.5
20260503231342 58 288 16.5 21.7 0.00 0.00 0.00 42 1012.8
20260503230838 58 291 18.2 20.9 0.00 0.00 0.00 41 1012.6
20260503230335 58 287 20.9 22.6 0.00 0.00 0.00 39 1012.6
20260503225833 58 307 19.1 19.1 0.00 0.00 0.00 39 1012.7
20260503225328 58 309 16.5 17.4 0.00 0.00 0.00 42 1012.6
20260503224824 58 304 20.9 27.8 0.00 0.00 0.00 40 1012.4
20260503224321 58 303 20.0 21.7 0.00 0.00 0.00 41 1012.5
20260503223819 58 294 24.3 26.1 0.00 0.00 0.00 41 1012.5
20260503223317 58 283 13.0 19.1 0.00 0.00 0.00 43 1012.7
20260503222812 58 293 19.1 24.3 0.00 0.00 0.00 43 1012.5
20260503222311 58 285 15.6 23.5 0.00 0.00 0.00 41 1012.4
20260503221809 58 285 10.4 21.7 0.00 0.00 0.00 50 1012.2
20260503221307 58 272 13.0 20.0 0.00 0.00 0.00 40 1012.3
20260503220802 57 292 19.1 23.5 0.00 0.00 0.00 37 1012.6
20260503220300 57 288 16.5 21.7 0.00 0.00 0.00 42 1012.3
20260503215756 57 296 17.4 21.7 0.00 0.00 0.00 45 1012.4
20260503215253 57 293 17.4 21.7 0.00 0.00 0.00 49 1012.3